Regional Weather Roundup
Issued by NWS

Home | Current Version | Previous Version | Text Only | Print | Product List | Glossary On
Versions: 1 2 3 4 5 6 7 8 9 10 11 12 13 14 15 16 17 18 19 20 21 22 23 24 25 26 27 28 29 30 31 32 33 34 35 36 37 38 39 40 41 42 43 44 45 46 47 48 49 50
000
ASUS44 KMEG 301100
RWRTN
TENNESSEE HOURLY STATE WEATHER ROUNDUP
NATIONAL WEATHER SERVICE MEMPHIS TN
500 AM CST FRI JAN 30 2015

TNZ002-004-019-021-049-052-054-088>092-301200-
WEST TENNESSEE

CITY           SKY/WX    TMP DP  RH WIND       PRES   REMARKS
MEMPHIS INTL   CLEAR     37  28  70 N9        30.43S WCI  30
NWS MEMPHIS      N/A     38 N/A N/A MISG        N/A
JACKSON        CLOUDY    38  25  59 N13       30.43S WCI  30
DYERSBURG      CLOUDY    37  18  44 N13G20    30.47R WCI  29
UNION CITY     CLOUDY    34  25  69 N8        30.43S WCI  27
PARIS          CLOUDY    32  23  69 N8        30.43R WCI  25
LEXINGTON      CLOUDY    37  25  60 NE10      30.39F WCI  30
SAVANNAH       CLOUDY    39  27  60 N14       30.40R WCI  31
$$

TNZ008-025-027-028-033-062-065-066-301200-
NORTH MIDDLE TENNESSEE

CITY           SKY/WX    TMP DP  RH WIND       PRES   REMARKS
NASHVILLE      CLOUDY    36  26  67 NW13G22   30.41R WCI  27
CLARKSVILLE    CLOUDY    34  26  72 N14       30.42R WCI  25
COOKEVILLE     MOCLDY    36  28  75 NW9       30.31S WCI  29
CROSSVILLE     CLOUDY    33  27  78 NW7G17    30.27R WCI  27
$$

TNZ061-075-076-078-094-096-097-301200-
SOUTH MIDDLE TENNESSEE

CITY           SKY/WX    TMP DP  RH WIND       PRES   REMARKS
FAYETTEVILLE   CLOUDY    36  27  69 MISG      30.33R
TULLAHOMA      CLOUDY    34  27  75 N15       30.33R WCI  24
WINCHESTER     CLOUDY    36  28  75 N13       30.33R WCI  27
COLUMBIA       CLOUDY    36  28  75 N9        30.38R WCI  29
SHELBYVILLE    CLOUDY    37  30  75 N13       30.37R WCI  29
$$

TNZ017-018-042-046-047-301200-
NORTHEAST TENNESSEE

CITY           SKY/WX    TMP DP  RH WIND       PRES   REMARKS
TRI CITIES     CLOUDY    35  26  69 NW8       30.19R WCI  29
ELIZABETHTON   CLOUDY    32  23  69 W10       30.17R WCI  24
$$

TNZ012-013-036-069-073-074-301200-
CENTRAL EAST TENNESSEE

CITY           SKY/WX    TMP DP  RH WIND       PRES   REMARKS
KNOXVILLE      CLOUDY    37  26  64 NW8       30.29R WCI  31
OAK RIDGE      CLOUDY    38  25  59 N7        30.31R WCI  33
GATLINBURG     CLOUDY    34  25  69 NW7       30.27S WCI  28
$$

TNZ083-085-099-301200-
SOUTHEAST TENNESSEE

CITY           SKY/WX    TMP DP  RH WIND       PRES   REMARKS
CHATTANOOGA    MOCLDY    40  26  57 N15G28    30.31R WCI  32
$$

SKY/WX REPORTED AS FAIR MEANS FEW OR NO CLOUDS BELOW
12 THOUSAND FEET.




USA.gov is the U.S. government's official web portal to all federal, state and local government web resources and services.